This is the latest recevied weather packets stored in our database for station/object CE7LGA-10. If no packets are shown the sender has not sent any weather packets the latest 10 day(s).
| Time | Temp. | Humidity | Pressure | Rain* | Wind** | Luminosity | Snow |
|---|---|---|---|---|---|---|---|
| 1778144831 | 11.67° C | 66% | 1013.6 hPa | - | - | - | - |
| 1778143931 | 11.67° C | 65% | 1013.8 hPa | - | - | - | - |
| 1778143031 | 12.22° C | 65% | 1013.3 hPa | - | - | - | - |
| 1778142131 | 12.22° C | 65% | 1013.3 hPa | - | - | - | - |
| 1778141231 | 12.22° C | 66% | 1013.1 hPa | - | - | - | - |
| 1778140330 | 12.78° C | 65% | 1012.9 hPa | - | - | - | - |
| 1778139430 | 12.78° C | 65% | 1012.9 hPa | - | - | - | - |
| 1778138530 | 12.78° C | 65% | 1012.9 hPa | - | - | - | - |
| 1778137630 | 12.78° C | 66% | 1013 hPa | - | - | - | - |
| 1778136730 | 13.33° C | 65% | 1012.8 hPa | - | - | - | - |
| 1778135833 | 13.33° C | 65% | 1012.7 hPa | - | - | - | - |
| 1778134932 | 13.33° C | 65% | 1012.5 hPa | - | - | - | - |
| 1778134032 | 13.89° C | 65% | 1012.2 hPa | - | - | - | - |
| 1778133132 | 13.89° C | 65% | 1012 hPa | - | - | - | - |
| 1778132232 | 13.89° C | 65% | 1011.9 hPa | - | - | - | - |
| 1778131332 | 14.44° C | 65% | 1011.8 hPa | - | - | - | - |
| 1778130432 | 14.44° C | 64% | 1011.6 hPa | - | - | - | - |
| 1778129532 | 14.44° C | 64% | 1011.3 hPa | - | - | - | - |
| 1778127732 | 15° C | 64% | 1011.1 hPa | - | - | - | - |
| 1778126833 | 15° C | 64% | 1010.9 hPa | - | - | - | - |
| 1778125932 | 15.56° C | 64% | 1011 hPa | - | - | - | - |
| 1778125032 | 15.56° C | 63% | 1010.9 hPa | - | - | - | - |
| 1778124132 | 15.56° C | 64% | 1010.7 hPa | - | - | - | - |
| 1778123231 | 16.11° C | 64% | 1010.6 hPa | - | - | - | - |
| 1778122331 | 16.67° C | 64% | 1010.3 hPa | - | - | - | - |
* Rain since midnight (hover to see other rain measurements)
** Current wind speed in m/s (hover to see current wind gust speed)